Weather History for Macomb, IL

Change the Weather History Date:

Saturday, January 12, 2013

  Actual Average (KBRL) Record (KBRL)
Temperature  
Mean Temperature 38 °F 26 °F  
Max Temperature 54 °F 34 °F 60 °F (1960)
Min Temperature 23 °F 17 °F -21 °F (1918)
Degree Days  
Heating Degree Days 26 39  
Month to date heating degree days 468  
Since 1 July heating degree days 2654  
Cooling Degree Days 0 0  
Month to date cooling degree days 0  
Year to date cooling degree days 0  
Moisture  
Dew Point 32 °F    
Average Humidity 81    
Maximum Humidity 96    
Minimum Humidity 68    
Precipitation  
Precipitation 0.02 in 0.04 in 0.56 in (1960)
Month to date precipitation 0.51  
Year to date precipitation 0.51  
Sea Level Pressure  
Sea Level Pressure 29.94 in    
Wind  
Wind Speed 14 mph (NW)    
Max Wind Speed 22 mph    
Max Gust Speed 29 mph    
Visibility 8 miles    
Events Snow    
T = Trace of Precipitation, MM = Missing Value Source: NWS Daily Summary

Daily Weather History Graph

Daily Weather History Graph

Search for Another Location

Airport:

Trip Planner

Search our weather history database for the weather conditions in past years. The results will help you decide how hot, cold, wet, or windy it might be!

Date:

Astronomy

Jan. 12, 2013 Rise Set
Actual Time 7:24 AM CST 4:57 PM CST
Civil Twilight 6:54 AM CST 5:27 PM CST
Nautical Twilight 6:21 AM CST 6:01 PM CST
Astronomical Twilight 5:48 AM CST 6:34 PM CST
Moon 7:43 AM CST (1/12) 6:27 PM CST (1/12)
Length of Visible Light 10h 32m
Length of Day
9h 32m
New Moon, 1% of the Moon is Illuminated
Jan 12
New Moon
Jan 18
First Quarter
Jan 26
Full
Feb 3
Last Quarter
Feb 10
New

Hourly Weather History & Observations

Time (CST) Temp. Windchill Dew Point Humidity Pressure Visibility Wind Dir Wind Speed Gust Speed Precip Events Conditions
12:15 AM 53.1 °F - 46.4 °F 78% 29.72 in 10.0 mi South 12.7 mph - N/A   Clear
12:35 AM 53.6 °F - 46.4 °F 77% 29.72 in 10.0 mi South 16.1 mph 19.6 mph N/A   Clear
12:55 AM 53.1 °F - 46.4 °F 78% 29.73 in 10.0 mi South 13.8 mph - N/A   Clear
1:15 AM 51.8 °F - 46.4 °F 82% 29.73 in 10.0 mi South 11.5 mph - N/A   Clear
1:35 AM 52.2 °F - 46.2 °F 80% 29.73 in 10.0 mi South 11.5 mph - N/A   Clear
1:55 AM 52.9 °F - 46.2 °F 78% 29.75 in 10.0 mi SSW 15.0 mph - N/A   Clear
2:15 AM 54.1 °F - 45.9 °F 74% 29.76 in 10.0 mi SSW 15.0 mph - N/A   Clear
2:35 AM 54.5 °F - 45.9 °F 73% 29.76 in 10.0 mi SSW 13.8 mph 20.7 mph N/A   Clear
2:55 AM 54.5 °F - 45.7 °F 72% 29.77 in 10.0 mi SSW 16.1 mph 20.7 mph N/A   Clear
3:15 AM 53.8 °F - 45.7 °F 74% 29.77 in 10.0 mi SSW 15.0 mph 20.7 mph N/A   Clear
3:35 AM 54.1 °F - 45.7 °F 73% 29.77 in 10.0 mi SW 18.4 mph 23.0 mph N/A   Clear
3:55 AM 54.5 °F - 45.7 °F 72% 29.77 in 10.0 mi SW 17.3 mph 23.0 mph N/A   Clear
4:15 AM 54.0 °F - 45.7 °F 74% 29.78 in 10.0 mi SW 17.3 mph - N/A   Clear
4:35 AM 53.1 °F - 45.7 °F 76% 29.79 in 10.0 mi SW 16.1 mph - N/A   Clear
4:55 AM 52.7 °F - 45.7 °F 77% 29.80 in 10.0 mi SW 16.1 mph - N/A   Clear
5:15 AM 52.7 °F - 45.1 °F 75% 29.80 in 10.0 mi WSW 16.1 mph 20.7 mph N/A   Clear
5:35 AM 51.3 °F - 44.8 °F 78% 29.82 in 10.0 mi West 12.7 mph - N/A   Clear
5:55 AM 51.1 °F - 41.2 °F 69% 29.84 in 10.0 mi West 15.0 mph 21.9 mph N/A   Clear
6:15 AM 48.7 °F - 38.7 °F 68% 29.86 in 10.0 mi WNW 21.9 mph 25.3 mph N/A   Clear
6:35 AM 43.5 °F 36.7 °F 37.6 °F 80% 29.89 in 7.0 mi WNW 13.8 mph - N/A   Scattered Clouds
6:55 AM 41.4 °F 34.3 °F 36.5 °F 83% 29.92 in 7.0 mi WNW 12.7 mph - N/A   Scattered Clouds
7:15 AM 40.3 °F 33.0 °F 36.3 °F 86% 29.94 in 7.0 mi WNW 12.7 mph - N/A   Clear
7:35 AM 39.2 °F 31.6 °F 35.4 °F 86% 29.95 in 7.0 mi WNW 12.7 mph - N/A   Clear
7:55 AM 38.7 °F 30.9 °F 34.9 °F 86% 29.95 in 7.0 mi WNW 12.7 mph - N/A   Clear
8:15 AM 38.3 °F 29.7 °F 33.8 °F 84% 29.95 in 10.0 mi WNW 15.0 mph - N/A   Clear
8:35 AM 38.1 °F 31.7 °F 34.2 °F 86% 29.98 in 10.0 mi WNW 9.2 mph - N/A   Clear
8:55 AM 37.6 °F 28.8 °F 33.1 °F 84% 29.98 in 10.0 mi WNW 15.0 mph - N/A   Mostly Cloudy
9:15 AM 37.8 °F 29.0 °F 33.3 °F 84% 30.00 in 10.0 mi WNW 15.0 mph - N/A   Mostly Cloudy
9:35 AM 37.8 °F 28.6 °F 32.9 °F 83% 30.01 in 10.0 mi WNW 16.1 mph - N/A   Scattered Clouds
9:55 AM 37.8 °F 30.7 °F 32.7 °F 82% 30.03 in 10.0 mi WNW 10.4 mph - N/A   Mostly Cloudy
10:15 AM 37.4 °F 30.3 °F 32.7 °F 83% 30.03 in 10.0 mi WNW 10.4 mph - N/A   Overcast
10:35 AM 37.0 °F 29.8 °F 32.2 °F 83% 30.03 in 10.0 mi WNW 10.4 mph - N/A   Overcast
10:55 AM 36.5 °F 31.0 °F 32.0 °F 84% 30.04 in 10.0 mi NW 6.9 mph - N/A   Overcast
11:15 AM 36.5 °F 28.2 °F 31.8 °F 83% 30.03 in 10.0 mi WNW 12.7 mph - N/A   Overcast
11:35 AM 36.5 °F 27.4 °F 31.8 °F 83% 30.02 in 10.0 mi NW 15.0 mph - N/A   Scattered Clouds
11:55 AM 36.3 °F 28.4 °F 28.9 °F 75% 30.00 in 10.0 mi NW 11.5 mph - N/A   Scattered Clouds
12:15 PM 35.2 °F 26.2 °F 26.8 °F 71% 29.99 in 10.0 mi NW 13.8 mph - N/A   Clear
12:35 PM 34.0 °F 23.8 °F 25.9 °F 72% 30.00 in 10.0 mi NW 16.1 mph - N/A   Scattered Clouds
12:55 PM 33.4 °F 24.3 °F 24.6 °F 70% 30.00 in 10.0 mi NW 12.7 mph - N/A   Mostly Cloudy
1:15 PM 33.4 °F 25.9 °F 25.0 °F 71% 30.00 in 10.0 mi NW 9.2 mph - N/A   Overcast
1:35 PM 33.6 °F 25.0 °F 25.5 °F 72% 29.99 in 10.0 mi NW 11.5 mph - N/A   Overcast
1:55 PM 33.4 °F 26.6 °F 25.2 °F 72% 30.00 in 10.0 mi NW 8.1 mph - N/A   Overcast
2:15 PM 33.1 °F 24.9 °F 25.3 °F 73% 30.02 in 10.0 mi NW 10.4 mph - N/A   Overcast
2:35 PM 32.9 °F 24.7 °F 24.1 °F 70% 30.04 in 10.0 mi NW 10.4 mph - N/A   Overcast
2:55 PM 33.1 °F 25.5 °F 25.0 °F 72% 30.04 in 10.0 mi NNW 9.2 mph - N/A   Overcast
3:15 PM 32.9 °F 24.7 °F 25.2 °F 73% 30.03 in 10.0 mi NNW 10.4 mph - N/A   Overcast
3:35 PM 32.4 °F 23.0 °F 25.2 °F 75% 30.03 in 10.0 mi NNW 12.7 mph - N/A   Overcast
3:55 PM 32.0 °F 23.6 °F 24.8 °F 75% 30.03 in 10.0 mi NNW 10.4 mph - N/A   Overcast
4:15 PM 32.0 °F 23.0 °F 25.7 °F 78% 30.01 in 10.0 mi North 11.5 mph - N/A   Overcast
4:35 PM 31.6 °F 22.6 °F 26.1 °F 80% 30.00 in 10.0 mi North 11.5 mph - N/A   Overcast
4:55 PM 31.3 °F 23.9 °F 25.3 °F 79% 30.00 in 10.0 mi North 8.1 mph - N/A   Overcast
5:15 PM 31.1 °F 22.4 °F 25.0 °F 78% 29.98 in 10.0 mi North 10.4 mph - N/A   Overcast
5:35 PM 30.9 °F 21.7 °F 24.1 °F 76% 29.99 in 10.0 mi North 11.5 mph - N/A   Overcast
5:55 PM 30.7 °F 22.0 °F 24.1 °F 76% 29.98 in 10.0 mi North 10.4 mph - N/A   Overcast
6:15 PM 30.4 °F 19.5 °F 24.6 °F 79% 29.99 in 10.0 mi NNW 15.0 mph - N/A   Overcast
6:35 PM 30.0 °F 19.5 °F 24.6 °F 80% 30.02 in 10.0 mi NW 13.8 mph - N/A   Overcast
6:55 PM 29.8 °F 18.4 °F 24.3 °F 80% 30.02 in 10.0 mi NNW 16.1 mph 20.7 mph N/A   Overcast
7:15 PM 29.5 °F 16.5 °F 24.1 °F 80% 30.02 in 10.0 mi NNW 20.7 mph 26.5 mph N/A   Overcast
7:35 PM 27.9 °F 15.9 °F 25.3 °F 90% 30.01 in 3.0 mi NNW 16.1 mph - N/A Snow Light Snow
7:55 PM 27.0 °F 14.3 °F 24.8 °F 92% 30.00 in 1.2 mi NNW 17.3 mph 25.3 mph N/A Snow Light Snow
8:15 PM 26.2 °F 13.8 °F 24.4 °F 93% 29.99 in 0.8 mi NNW 16.1 mph 24.2 mph N/A Snow Snow
8:35 PM 25.9 °F 13.8 °F 24.3 °F 94% 29.97 in 2.0 mi North 15.0 mph 18.4 mph N/A Snow Light Snow
8:55 PM 26.2 °F 15.2 °F 24.4 °F 93% 29.96 in 7.0 mi North 12.7 mph 23.0 mph N/A Snow Light Snow
9:15 PM 26.1 °F 14.5 °F 23.9 °F 92% 29.97 in 7.0 mi NNW 13.8 mph - N/A   Overcast
9:35 PM 26.6 °F 14.7 °F 24.8 °F 93% 29.98 in 4.0 mi North 15.0 mph - N/A Snow Light Snow
9:55 PM 25.7 °F 15.1 °F 24.4 °F 95% 29.99 in 2.0 mi NNW 11.5 mph - 0.02 in Snow Light Snow
10:15 PM 25.5 °F 13.3 °F 24.4 °F 96% 30.00 in 2.0 mi NNW 15.0 mph 20.7 mph N/A Snow Light Snow
10:35 PM 24.8 °F 12.4 °F 23.5 °F 95% 29.99 in 1.0 mi NNW 15.0 mph 21.9 mph N/A Snow Light Snow
10:55 PM 24.8 °F 10.3 °F 23.0 °F 93% 30.00 in 1.0 mi NNW 20.7 mph 24.2 mph N/A Snow Light Snow
11:15 PM 24.1 °F 11.0 °F 22.8 °F 95% 29.99 in 1.2 mi NNW 16.1 mph 23.0 mph N/A Snow Light Snow
11:35 PM 23.4 °F 8.8 °F 21.2 °F 91% 29.99 in 1.8 mi NNW 19.6 mph 28.8 mph N/A Snow Light Snow
11:55 PM 23.0 °F 9.6 °F 20.7 °F 91% 29.98 in 2.5 mi NNW 16.1 mph 26.5 mph N/A Snow Light Snow